Гран При Канады: первая тренировка

Гран При Канады: первая тренировка

Фернандо Алонсо показал лучшее время по время первой тренировки Гран При Канады. Привезенные обновления помогли пилоту Ferrari опередить двоих пилотов Mercedes.

Утро в Канаде оказалось облачным, но обещанного дождя не было. Поэтому команды смогли поработать над новинками, привезенными в Монреаль. Учитывая, что трасса используется для гонок только раз в году, асфальт вначале был грязный и без резины на траектории.

Из-за этого было много ошибок. Самая серьезная произошла с Жюлем Бьянки, который зацепил «стену чемпионов», повредив подвеску и досрочно завершив сессию. С проблемами столкнулись Фелипе Массе – из-за неполадок ERS, и Гутьеррес – из-за электроники силовой установки.

Долгое время Льюис Хэмильтон и Нико Росберг делили первые строчки протокола, пока Фернандо Алонсо не показал время на  0.016 секунды лучше.

Также хорошее время показали пилоты Williams  и McLaren, а вот от пилотов Force India ожидали большего. Хотя никто не знает с каким количеством топлива работали команды.

 
Дата06 июня 2014Погодаоблачно
Киевское время17:00-18:30 ч.Температура18-19°C
Местное время10:00-11:30 ч.Влажность69-73%
Участники22Давление1.009 mBar
Рекорд в гонке1:13.622 мин.Асфальт24-28°C
Рекорд в квалификации1:12.275 мин.Ветер2 м/с, восточный

Результаты

Поз.ПилотКомандаВремяОтставаниеот пред.Круги
114F. AlonsoFerrari1:17.238  21
244L. HamiltonMercedes1:17.254+0:00.016+0:00.01625
36N. RosbergMercedes1:17.384+0:00.146+0:00.13032
41S. VettelRed Bull1:18.131+0:00.893+0:00.74728
577V. BottasWilliams1:18.361+0:01.123+0:00.23020
63D. RicciardoRed Bull1:18.435+0:01.197+0:00.07426
722J. ButtonMcLaren1:18.446+0:01.208+0:00.01133
820K. MagnussenMcLaren1:18.514+0:01.276+0:00.06831
97K. RäikkönenFerrari1:18.578+0:01.340+0:00.06415
1025J. VergneToro Rosso1:18.643+0:01.405+0:00.06514
1127N. HülkenbergForce India1:18.733+0:01.495+0:00.09030
1211S. PerezForce India1:18.959+0:01.721+0:00.22622
1399A. SutilSauber1:19.108+0:01.870+0:00.14924
148R. GrosjeanLotus1:19.142+0:01.904+0:00.03432
1526D. KwjatToro Rosso1:19.177+0:01.939+0:00.03521
1613P. MaldonadoLotus1:19.340+0:02.102+0:00.16337
1719F. MassaWilliams1:19.575+0:02.337+0:00.2357
1821E. GutierrezSauber1:19.804+0:02.566+0:00.22915
1917J. BianchiMarussia1:20.200+0:02.962+0:00.39615
204M. ChiltonMarussia1:20.844+0:03.606+0:00.64426
219M. EricssonCaterham1:21.404+0:04.166+0:00.56033
2245A. RossiCaterham1:21.757+0:04.519+0:00.35327
 107 % барьер1:22.644 
от пред. = от предыдущего

Будьте частиною чогось більшого

Написати коментар
Показати коментарі
Про цю статтю
Серія Формула 1
Тип статті Важливі новини